Location: Kershaw
(34.5481°N, 80.5823°W)
Time: 15:43:11
(UTC+00:00)

Vanguard 1 Rocket - Pass Details

Date: 30 September 2022
Orbit: 650 x 4225 km, 34.3° (Epoch: 08 December)

Event Time Altitude Azimuth Distance (km) Brightness Sun altitude
Rises 01:25:38 0° 240° (WSW) 8,140 12.8 -28.6°
Reaches altitude 10° 01:31:49 10° 239° (WSW) 6,762 12.2 -29.8°
Maximum altitude 01:51:34 68° 161° (SSE) 2,451 9.2 -33.6°
Enters shadow 01:53:37 62° 119° (ESE) 2,367 9.0 -34.0°
Drops below altitude 10° 02:01:29 10° 81° (E) 3,664 - -35.5°
Sets 02:03:48 0° 78° (ENE) 4,340 - -35.9°
